IRNSS-1C

Last updated on Tue Sep 22 2026 00:03:13 GMT+0000 (Coordinated Universal Time)

1 40269U 14061A 26264.07774887 -.00000163 00000+0 00000+0 0 9990 2 40269 6.7565 87.0826 0019828 10.3382 13.5532 1.00269867 43654
UTC large
Height (km)
Speed (km/s)
/
Latitude / Longitude
Inclination (degrees)
Orbital Period (minutes)
Azimuth
Elevation
Range (km)
Doppler Factor

Next 0 passes for location: London (51.5072 / 0.1276)

No passes found over London.
IRNSS-1C